"Pseudo-MPEC" for P1162nQ

Created 2020 Sep 22 16:07:16 UT using Find_Orb

Click here for an explanation of pseudo-MPECs

 
 Astrometry: 
     P1162nQ  C2020 09 14'JO04))l9RxKs/qT_ORAstrometry(@redacted;!!E#\ADM%+V5F51
     P1162nQ  C2020 09 14?_?2RK0XDsORX+'13!fhGiKh3+o96clickL(Ve!BrL,PJYhereYkF51
     P1162nQ  C2020 09 14d^Q_Bfor?,1jOyvexplanationxlfJtvjvb$8M]K)Oig+@MN_39*F51

Station data:
(F51) Pan-STARRS 1, Haleakala  (N20.707235 W156.255910)  US/Hawaii.
   Observers N. Primak, A. Schultz, S. Watters, J. Thiel, T. Goggia. Measurer
   PS1 Science Consortium. 1.8-m Ritchey-Chrétien + CCD.

Orbital elements:  P1162nQ
   Perihelion 2021 May 22.598103 +/- 118 TT = 14:21:16 (JD 2459357.098103)
Epoch 2020 Sep 14.0 TT = JDT 2459106.5   Earth MOID: 0.2289   AutoNEOCP
M 216.57185595 +/- 110              (J2000 ecliptic)
n   0.57234329 +/- 0.372            Peri.  343.69629 +/- 80
a   1.43669633 +/- 0.623            Node   154.29022 +/- 32
e   0.1564190 +/- 0.275             Incl.   36.34936 +/- 23
P   1.72/628.98d           H 21.9   G  0.15   U 12.1  SR
q 1.21196965 +/- 0.537    Q 1.66142301 +/- 28.6
From 3 observations 2020 Sept. 14 (39.3 min); mean residual 0".09
Residuals in arcseconds: 
200914 F51  .08-  .04-    200914 F51  .16+  .07+    200914 F51  .08-  .04-    

Ephemerides (geocentric):
Date (UTC) HH   RA              Dec         delta   r     elong  mag " sig PA
---- -- -- --  -------------   -----------  ------ ------ -----  --- ---- ---
2020 09 22 16  22 24 27.899   -31 53 57.51  .70934 1.6180 141.1 23.3  24d   6
2020 09 22 17  22 24 25.202   -31 55 19.88  .70960 1.6179 141.0 23.3  24d   5
2020 09 22 18  22 24 22.510   -31 56 42.13  .70986 1.6179 141.0 23.3  24d   4
2020 09 22 19  22 24 19.821   -31 58 04.25  .71012 1.6178 140.9 23.3  24d   4
2020 09 22 20  22 24 17.137   -31 59 26.27  .71038 1.6178 140.8 23.3  24d   3
2020 09 22 21  22 24 14.457   -32 00 48.16  .71065 1.6177 140.8 23.3  25d   3
2020 09 22 22  22 24 11.782   -32 02 09.93  .71091 1.6177 140.7 23.3  25d   2
2020 09 22 23  22 24 09.110   -32 03 31.58  .71117 1.6176 140.7 23.3  25d   2
2020 09 23 00  22 24 06.443   -32 04 53.12  .71144 1.6176 140.6 23.3  25d   2
2020 09 23 01  22 24 03.781   -32 06 14.54  .71170 1.6175 140.6 23.3  25d   1
2020 09 23 02  22 24 01.123   -32 07 35.83  .71197 1.6175 140.5 23.3  25d   1
2020 09 23 03  22 23 58.469   -32 08 57.01  .71223 1.6174 140.4 23.3  25d   0
2020 09 23 04  22 23 55.819   -32 10 18.07  .71250 1.6174 140.4 23.3  25d   0
2020 09 23 05  22 23 53.174   -32 11 39.01  .71276 1.6173 140.3 23.3  25d   0
2020 09 23 06  22 23 50.533   -32 12 59.83  .71303 1.6173 140.3 23.3  25d 179
2020 09 23 07  22 23 47.897   -32 14 20.54  .71329 1.6172 140.2 23.3  25d 179
2020 09 23 08  22 23 45.265   -32 15 41.12  .71356 1.6172 140.2 23.3  25d 179
2020 09 23 09  22 23 42.638   -32 17 01.59  .71383 1.6171 140.1 23.3  25d 179
2020 09 23 10  22 23 40.014   -32 18 21.94  .71409 1.6171 140.0 23.3  25d 178
2020 09 23 11  22 23 37.396   -32 19 42.17  .71436 1.6170 140.0 23.3  25d 178
2020 09 23 12  22 23 34.781   -32 21 02.28  .71463 1.6170 139.9 23.3  25d 178
2020 09 23 13  22 23 32.172   -32 22 22.27  .71490 1.6169 139.9 23.3  25d 178
2020 09 23 14  22 23 29.566   -32 23 42.14  .71517 1.6169 139.8 23.3  25d 178
2020 09 23 15  22 23 26.965   -32 25 01.90  .71543 1.6168 139.8 23.3  25d 177
2020 09 23 16  22 23 24.369   -32 26 21.53  .71570 1.6168 139.7 23.3  25d 177
2020 09 23 17  22 23 21.776   -32 27 41.05  .71597 1.6167 139.6 23.3  25d 177
2020 09 23 18  22 23 19.189   -32 29 00.45  .71624 1.6167 139.6 23.3  25d 177
2020 09 23 19  22 23 16.606   -32 30 19.73  .71651 1.6166 139.5 23.3  25d 177
2020 09 23 20  22 23 14.027   -32 31 38.90  .71678 1.6166 139.5 23.3  25d 176
2020 09 23 21  22 23 11.453   -32 32 57.94  .71705 1.6165 139.4 23.3  25d 176
2020 09 23 22  22 23 08.883   -32 34 16.87  .71733 1.6165 139.4 23.3  25d 176
2020 09 23 23  22 23 06.318   -32 35 35.68  .71760 1.6164 139.3 23.3  25d 176
2020 09 24 00  22 23 03.757   -32 36 54.37  .71787 1.6164 139.2 23.3  25d 176
2020 09 24 01  22 23 01.201   -32 38 12.94  .71814 1.6163 139.2 23.3  25d 176
2020 09 24 02  22 22 58.650   -32 39 31.40  .71841 1.6163 139.1 23.3  26d 176
2020 09 24 03  22 22 56.103   -32 40 49.73  .71869 1.6162 139.1 23.3  26d 176
2020 09 24 04  22 22 53.560   -32 42 07.95  .71896 1.6162 139.0 23.3  26d 175
2020 09 24 05  22 22 51.022   -32 43 26.05  .71923 1.6161 139.0 23.3  26d 175
2020 09 24 06  22 22 48.489   -32 44 44.03  .71951 1.6161 138.9 23.3  26d 175
2020 09 24 07  22 22 45.960   -32 46 01.90  .71978 1.6160 138.8 23.3  26d 175
2020 09 24 08  22 22 43.435   -32 47 19.65  .72006 1.6160 138.8 23.3  26d 175
2020 09 24 09  22 22 40.916   -32 48 37.28  .72033 1.6159 138.7 23.3  26d 175
2020 09 24 10  22 22 38.400   -32 49 54.79  .72061 1.6159 138.7 23.3  26d 175
2020 09 24 11  22 22 35.890   -32 51 12.18  .72088 1.6158 138.6 23.4  26d 175
2020 09 24 12  22 22 33.384   -32 52 29.46  .72116 1.6158 138.6 23.4  26d 175
2020 09 24 13  22 22 30.882   -32 53 46.62  .72143 1.6157 138.5 23.4  26d 174
2020 09 24 14  22 22 28.386   -32 55 03.66  .72171 1.6157 138.5 23.4  26d 174
2020 09 24 15  22 22 25.894   -32 56 20.58  .72199 1.6156 138.4 23.4  26d 174